Probability
0 0 0 10 10 32 48 42 19 6 6 0 13 0 0 0 0 0 0 0 0 0 0 0 0 0 0 0 0 0 0 0 0 0 0 0 0 0
0 0 0 0 13 35 42 35 29 6 3 0 10 6 0 0 0 0 0 0 0 0 0 0 0 0 0 0 0 0 0 0 0 0 0 0 0 0
0 0 0 0 0 19 23 35 29 3 0 0 0 0 0 0 0 0 0 0 0 0 0 0 0 0 0 0 0 0 0 0 0 0 0 0 0 0
0 0 0 0 0 0 0 3 6 3 0 0 0 0 0 0 0 0 0 0 3 0 0 0 0 0 0 0 0 0 0 0 0 0 0 0 0 0
0 0 0 0 0 0 0 0 3 0 0 0 0 0 0 0 0 0 0 0 0 0 0 0 0 0 0 0 0 0 0 0 0 0 0 0 0 0
0 0 0 0 0 0 0 0 0 0 3 0 0 0 0 0 0 0 0 0 0 0 0 0 0 0 0 0 0 0 0 0 0 0 0 0 0 0
0 0 0 0 0 0 0 0 0 0 3 0 0 0 0 0 0 0 0 0 0 0 6 0 0 0 0 0 0 0 0 0 0 0 0 0 0 0
0 0 0 0 0 0 0 0 0 0 0 0 0 0 0 0 0 0 0 0 0 0 3 16 3 6 3 0 0 0 0 0 0 0 0 0 0 0
0 0 0 0 0 0 0 0 0 0 0 0 0 0 0 0 0 0 0 0 0 0 0 0 0 0 3 0 0 0 0 0 0 0 0 0 0 0
0 0 0 0 0 0 0 0 0 0 0 0 0 0 0 0 0 0 0 0 0 0 0 0 0 0 0 0 0 0 0 0 0 0 0 0 0 0
0 0 0 0 0 0 0 0 0 0 0 0 0 0 0 0 0 0 0 0 0 0 0 0 0 0 0 0 0 0 0 0 0 0 0 0 0 0
0 0 0 0 0 0 0 0 0 0 0 0 0 0 0 0 0 0 0 0 0 0 0 0 0 0 0 0 0 0 0 0 0 0 0 0 0 0
0 0 0 0 0 0 0 0 0 0 0 0 0 0 0 0 0 0 0 0 0 0 0 0 0 0 0 0 0 0 0 0 0 0 0 0 0 0
0 0 0 0 0 0 0 0 0 0 0 0 0 0 0 0 0 0 0 0 0 0 0 0 0 0 0 0 0 0 0 0 0 0 0 0 0 0
0 0 0 0 0 0 0 0 0 0 3 0 0 0 0 0 0 0 0 0 0 0 0 0 0 0 0 0 0 0 0 0 0 0 0 0 0 0
0 0 0 0 0 0 0 0 0 0 0 0 0 0 0 0 0 0 0 0 0 0 0 0 0 0 0 0 0 0 0 0 0 0 0 0 0 0
0 0 0 0 0 0 0 0 0 0 0 0 0 0 0 0 0 0 0 0 0 0 0 0 0 0 0 0 0 0 0 0 0 0 0 0 0 0
0 0 0 0 0 0 0 0 0 0 0 0 0 0 0 0 0 0 0 0 0 0 0 0 0 0 0 0 0 0 0 0 0 0 0 0 0 0
0 0 0 0 0 0 0 0 0 0 0 0 0 0 0 0 0 0 0 0 0 0 0 0 0 0 0 0 0 0 0 0 0 0 0 0 0 0
0 0 0 0 0 0 0 0 0 0 0 0 0 0 0 0 0 0 0 0 0 0 0 0 0 0 0 0 0 0 0 0 0 0 0 0 0 0
0 0 0 0 0 0 0 0 0 0 0 0 0 0 0 0 0 0 0 0 0 0 0 0 0 0 0 0 0 0 0 0 0 0 0 0 0 0
0 0 0 0 0 0 0 0 0 0 0 0 0 0 0 0 0 0 0 0 0 0 0 0 0 0 0 0 0 0 0 0 0 0 0 0 0 0
0 0 0 0 0 0 0 0 0 0 0 0 0 0 0 0 0 0 0 0 0 0 0 0 0 0 0 0 0 0 0 0 0 0 0 0 0 0
Height
5816 5815 5815 5814 5813 5812 5811 5811 5812 5812 5813 5814 5814 5816 5819 5821 5824 5827 5830 5833 5835 5836 5838 5839 5841 5843 5845 5846 5847 5848 5850 5851 5852 5853 5854 5855 5857 5859
5808 5809 5809 5808 5807 5806 5805 5805 5806 5807 5807 5808 5809 5811 5813 5816 5818 5821 5824 5826 5828 5830 5831 5832 5834 5837 5839 5840 5841 5843 5844 5846 5847 5847 5848 5849 5851 5852
5801 5802 5803 5802 5802 5801 5800 5800 5800 5801 5801 5802 5802 5805 5807 5810 5813 5816 5818 5820 5822 5823 5825 5826 5828 5830 5832 5834 5836 5837 5839 5840 5841 5842 5842 5844 5845 5846
5795 5796 5797 5797 5797 5796 5795 5795 5795 5795 5796 5795 5796 5799 5802 5806 5809 5812 5814 5815 5817 5818 5820 5821 5823 5825 5827 5828 5830 5831 5833 5835 5835 5836 5837 5838 5839 5841
5788 5789 5790 5791 5792 5792 5790 5790 5791 5791 5791 5791 5793 5795 5798 5802 5804 5807 5809 5811 5812 5814 5816 5816 5817 5819 5821 5822 5824 5826 5827 5828 5829 5830 5831 5833 5834 5835
5782 5783 5784 5785 5786 5787 5786 5785 5787 5787 5787 5788 5790 5792 5795 5797 5799 5802 5804 5805 5807 5809 5811 5811 5812 5813 5815 5816 5818 5819 5820 5821 5822 5824 5825 5826 5828 5829
5776 5777 5777 5778 5779 5780 5780 5781 5782 5783 5784 5785 5786 5787 5790 5792 5794 5796 5798 5800 5801 5803 5804 5805 5806 5808 5809 5810 5811 5812 5813 5814 5816 5817 5818 5819 5821 5822
5769 5770 5770 5771 5772 5773 5774 5775 5777 5778 5780 5781 5781 5782 5784 5786 5788 5790 5791 5793 5794 5796 5796 5798 5800 5801 5802 5804 5805 5806 5807 5808 5809 5809 5810 5812 5813 5814
5762 5762 5762 5763 5764 5765 5767 5768 5770 5772 5774 5775 5776 5777 5778 5780 5782 5783 5784 5786 5788 5788 5788 5790 5792 5793 5795 5797 5798 5799 5799 5800 5801 5802 5803 5804 5805 5805
5757 5756 5756 5755 5756 5757 5759 5761 5763 5766 5768 5770 5771 5772 5774 5775 5777 5778 5779 5780 5781 5781 5781 5782 5783 5784 5786 5787 5789 5790 5790 5791 5792 5793 5794 5795 5795 5796
5752 5751 5751 5750 5750 5750 5752 5754 5756 5758 5761 5763 5766 5767 5768 5770 5772 5773 5773 5774 5775 5775 5774 5774 5775 5775 5776 5777 5778 5779 5780 5782 5783 5783 5783 5784 5785 5785
5745 5745 5745 5745 5745 5745 5746 5748 5750 5752 5754 5757 5760 5762 5764 5765 5766 5767 5768 5768 5768 5768 5768 5768 5767 5767 5767 5767 5768 5769 5770 5771 5772 5773 5773 5773 5774 5774
5737 5737 5737 5737 5738 5739 5740 5742 5743 5746 5748 5751 5754 5756 5758 5760 5761 5761 5762 5762 5761 5761 5761 5761 5760 5760 5759 5759 5758 5759 5759 5760 5761 5762 5762 5762 5762 5763
5729 5728 5728 5729 5730 5731 5733 5735 5738 5741 5744 5746 5749 5751 5753 5755 5756 5756 5756 5756 5755 5755 5754 5754 5753 5753 5752 5751 5750 5749 5749 5749 5749 5750 5750 5750 5750 5750
5721 5720 5719 5719 5720 5722 5724 5728 5732 5735 5739 5742 5745 5747 5749 5750 5751 5751 5751 5751 5750 5749 5748 5747 5746 5745 5744 5743 5741 5740 5739 5739 5738 5737 5737 5736 5736 5736
5714 5712 5710 5709 5709 5711 5715 5720 5725 5730 5734 5738 5741 5743 5745 5746 5746 5746 5746 5745 5744 5743 5741 5740 5738 5737 5735 5733 5731 5730 5728 5728 5727 5726 5724 5723 5722 5722
5709 5706 5703 5700 5699 5701 5706 5712 5719 5726 5731 5735 5737 5739 5741 5741 5741 5741 5740 5739 5738 5736 5734 5732 5730 5727 5725 5723 5721 5719 5717 5716 5715 5713 5712 5711 5710 5709
5707 5703 5700 5695 5694 5695 5700 5707 5716 5723 5729 5733 5735 5737 5738 5738 5738 5736 5735 5733 5731 5729 5726 5724 5721 5719 5716 5714 5711 5708 5706 5704 5702 5701 5700 5699 5697 5696
5708 5705 5701 5698 5697 5699 5703 5709 5716 5723 5728 5732 5734 5735 5736 5735 5734 5732 5730 5727 5725 5722 5719 5715 5712 5709 5706 5703 5699 5696 5694 5691 5689 5687 5685 5684 5683 5682
5713 5710 5707 5706 5706 5707 5711 5715 5720 5725 5729 5732 5733 5734 5733 5732 5730 5728 5725 5722 5719 5715 5711 5707 5703 5699 5695 5692 5688 5683 5680 5677 5675 5672 5671 5669 5667 5666
5719 5717 5715 5715 5715 5716 5719 5722 5725 5728 5730 5732 5733 5732 5731 5730 5728 5725 5722 5718 5714 5710 5705 5700 5695 5690 5685 5680 5676 5671 5667 5663 5660 5658 5656 5654 5652 5651
5727 5725 5724 5724 5724 5725 5726 5728 5729 5731 5732 5733 5733 5732 5731 5729 5727 5724 5720 5716 5711 5706 5700 5694 5688 5682 5676 5670 5665 5659 5655 5651 5647 5644 5642 5640 5638 5637
5735 5734 5733 5732 5732 5732 5733 5733 5734 5734 5734 5734 5734 5732 5731 5729 5726 5722 5718 5713 5708 5702 5696 5689 5682 5675 5668 5662 5655 5650 5645 5640 5636 5633 5630 5628 5626 5624
Wind_Speed
25 24 25 27 26 25 24 23 23 24 24 23 22 26 26 25 24 26 28 29 30 31 31 32 31 30 28 27 26 24 23 22 22 24 27 28 29 28
25 24 25 26 24 22 21 20 20 21 23 25 23 25 27 25 24 25 27 29 30 31 31 32 32 31 30 28 25 24 23 21 22 23 23 24 25 26
25 24 24 23 22 21 20 20 21 22 24 26 27 27 29 28 25 25 25 24 24 25 26 28 30 31 30 28 26 25 24 23 23 23 23 23 23 24
24 23 22 22 22 21 19 17 18 19 21 22 25 28 29 29 27 25 24 22 20 19 20 23 27 29 29 28 28 27 26 26 25 24 24 24 24 23
25 24 23 22 22 21 20 18 18 18 19 20 23 27 28 29 28 25 24 23 21 20 21 21 23 27 29 29 30 29 29 28 27 27 27 26 26 25
25 25 24 24 24 23 20 19 19 19 19 20 22 25 27 28 28 27 26 26 25 25 25 24 24 25 27 28 29 29 29 29 29 29 29 29 29 29
26 26 25 25 26 25 22 20 19 19 20 21 22 23 26 29 30 29 29 28 29 30 31 30 29 28 27 27 28 29 30 30 31 30 30 30 31 31
26 26 27 27 26 26 24 23 22 21 22 23 24 23 25 26 27 28 28 28 29 32 34 34 33 33 32 31 30 31 31 32 33 33 32 32 32 33
25 25 25 27 28 27 26 25 24 23 23 24 25 24 23 24 26 27 27 27 28 30 33 33 34 35 36 36 35 35 34 35 35 35 35 35 35 36
22 22 21 23 25 28 28 27 26 26 25 25 25 26 26 25 26 26 27 27 28 28 29 31 33 36 37 38 38 38 38 37 36 37 37 36 36 37
20 21 21 21 21 23 25 26 26 27 28 27 26 26 26 26 25 26 26 26 27 27 27 27 29 33 37 39 40 40 41 40 39 40 40 40 39 38
21 21 22 22 22 22 22 24 25 25 27 27 26 26 25 25 25 26 28 28 28 28 29 29 29 30 33 37 41 43 43 43 43 43 42 41 40 40
23 23 23 23 24 24 24 24 24 23 23 24 25 25 24 24 25 26 28 28 28 28 28 29 30 31 32 35 38 41 43 45 46 45 44 43 42 42
24 24 23 24 24 25 26 27 26 24 22 20 20 20 20 21 22 22 23 23 25 26 27 28 29 31 33 34 35 36 38 41 43 45 46 46 47 46
22 22 22 23 24 25 27 28 27 25 22 18 15 13 13 13 16 19 21 23 25 27 28 31 32 33 34 35 35 35 34 34 36 38 42 46 47 48
20 20 21 22 23 24 24 26 25 23 19 16 13 11 11 13 15 18 21 24 26 28 30 32 34 36 37 37 38 38 38 37 37 37 38 41 43 45
16 15 15 17 18 20 22 24 24 23 20 16 13 12 13 16 19 22 23 25 26 27 29 30 31 32 33 34 35 36 36 37 37 37 38 38 39 40
11 11 10 7 5 9 15 20 23 22 18 14 12 12 14 17 18 19 20 21 22 24 25 27 28 30 32 33 34 35 36 37 37 38 38 39 40 41
11 12 12 11 10 12 14 17 18 16 13 9 7 8 10 11 13 15 17 20 22 24 27 29 30 32 34 36 38 39 40 41 42 42 42 42 42 43
16 17 18 18 18 17 17 16 14 12 8 4 1 3 6 9 12 15 17 20 22 24 26 28 30 32 34 36 37 39 41 42 43 44 45 45 45 46
21 21 21 22 22 22 21 19 17 14 11 7 5 5 7 9 12 14 16 19 21 23 25 27 28 30 31 33 34 36 37 39 40 41 42 43 43 45
26 25 25 25 25 24 22 20 18 15 12 10 8 8 8 9 11 13 16 18 21 23 26 28 30 31 32 33 33 34 35 35 37 38 39 39 39 40
25 25 25 24 23 22 20 18 16 14 12 11 9 8 8 9 11 14 16 19 22 24 26 28 30 30 30 30 30 30 30 31 31 32 34 35 36 38
Wind_Direction
268 268 267 266 265 261 257 257 257 256 251 249 249 240 237 236 237 239 241 243 245 248 250 249 244 242 242 244 247 248 248 251 254 254 250 248 249 250
262 261 263 264 261 255 254 256 258 256 250 245 242 239 236 237 236 238 240 243 245 246 248 247 241 238 239 241 242 242 245 250 255 254 249 247 248 248
257 256 260 260 255 250 252 257 259 259 256 248 240 235 232 233 237 239 239 242 243 245 248 246 239 237 239 242 242 244 247 253 256 253 250 248 248 248
254 251 255 255 252 250 248 254 261 261 259 252 238 229 227 229 233 237 240 241 243 246 250 247 241 240 243 247 249 251 253 256 257 254 252 249 246 246
254 248 250 251 252 250 245 248 258 265 259 246 233 228 228 226 229 235 241 246 247 249 252 252 247 244 246 251 255 256 257 257 258 256 254 252 249 247
254 249 249 250 251 249 246 248 253 258 253 244 236 233 230 228 231 238 244 249 252 253 254 254 251 248 248 252 256 258 258 259 259 258 256 255 254 253
256 253 251 251 250 250 249 250 253 253 250 245 242 241 239 238 241 245 249 251 252 254 255 255 252 249 248 249 252 255 257 258 259 258 258 258 257 256
261 258 254 251 251 251 251 252 254 254 251 247 245 247 245 243 244 247 249 252 254 254 255 255 253 251 249 249 250 253 255 256 257 257 257 257 257 257
262 262 259 252 249 249 251 252 253 253 252 250 249 251 252 251 253 255 255 258 260 259 256 254 253 253 255 256 253 252 252 254 257 258 259 259 260 259
266 266 266 262 255 250 249 249 250 251 251 250 250 252 254 260 263 265 264 263 262 265 263 258 255 255 256 259 258 254 253 255 258 259 260 261 262 262
271 272 271 271 265 257 252 249 248 248 249 249 250 252 255 259 262 265 266 266 266 267 266 263 262 262 258 256 256 257 257 257 261 263 263 263 263 263
274 271 269 267 265 262 258 252 247 245 246 246 247 249 254 258 263 266 268 269 270 269 267 265 267 270 265 261 259 259 259 258 261 264 263 262 262 265
280 276 270 265 261 257 254 252 247 243 243 244 246 248 251 256 261 265 268 269 269 269 268 266 268 271 270 268 265 263 262 260 261 261 260 260 262 264
284 280 273 265 259 254 251 249 247 243 241 241 243 246 250 254 260 264 266 267 267 266 264 264 268 272 273 271 268 265 265 264 263 262 260 261 263 264
291 285 278 269 261 254 248 244 243 239 233 231 235 242 251 262 268 271 272 272 271 270 269 268 270 271 272 273 273 272 275 278 276 271 267 263 260 260
301 293 284 275 264 254 245 237 232 226 222 223 229 243 262 276 281 283 282 281 280 279 278 278 277 276 277 279 279 279 279 277 276 275 274 271 267 263
311 305 296 284 266 249 235 224 216 212 215 222 236 257 277 288 292 293 293 292 291 290 288 287 286 284 282 280 280 279 279 278 277 276 274 274 273 272
336 338 338 327 270 215 201 197 198 202 211 224 245 270 286 293 296 297 298 298 297 295 293 290 287 285 284 283 282 281 279 278 277 276 275 273 272 271
28 33 41 58 86 121 146 163 175 186 198 219 254 281 296 304 308 309 307 305 302 299 296 293 290 288 286 284 283 280 279 277 276 275 274 273 272 271
58 63 68 77 88 102 116 127 137 144 150 159 204 322 328 328 327 323 319 315 311 307 304 301 299 296 293 290 287 284 281 279 276 275 273 272 271 271
69 74 79 84 91 98 105 109 113 114 111 101 70 26 1 349 343 339 336 332 327 323 319 314 310 306 302 298 295 291 288 285 281 279 276 275 274 273
72 75 80 84 88 91 94 96 97 95 88 77 62 44 26 11 0 352 346 341 336 332 328 324 320 315 311 307 303 299 295 291 287 284 282 279 277 276
71 73 76 80 83 84 86 86 85 84 79 72 60 45 27 10 358 350 346 343 341 338 334 331 328 326 323 320 317 313 308 302 296 291 287 284 282 280